Year,Month,Day,Hour,Minute,Value (Times are PST for windspeed in km/hr)
2016,08,20,00,00,5.20
2016,08,20,00,01,4.40
2016,08,20,00,02,6.40
2016,08,20,00,03,5.90
2016,08,20,00,04,3.80
2016,08,20,00,05,5.70
2016,08,20,00,06,7.30
2016,08,20,00,07,8.90
2016,08,20,00,08,6.90
2016,08,20,00,09,6.10
2016,08,20,00,10,5.80
2016,08,20,00,11,3.80
2016,08,20,00,12,6.00
2016,08,20,00,13,6.10
2016,08,20,00,14,5.40
2016,08,20,00,15,6.50
2016,08,20,00,16,7.00
2016,08,20,00,17,5.80
2016,08,20,00,18,4.10
2016,08,20,00,19,3.60
2016,08,20,00,20,6.60
2016,08,20,00,21,4.20
2016,08,20,00,22,4.80
2016,08,20,00,23,6.10
2016,08,20,00,24,5.00
2016,08,20,00,25,5.40
2016,08,20,00,26,4.90
2016,08,20,00,27,4.20
2016,08,20,00,28,4.30
2016,08,20,00,29,6.50
2016,08,20,00,30,5.60
2016,08,20,00,31,6.00
2016,08,20,00,32,4.60
2016,08,20,00,33,7.90
2016,08,20,00,34,7.80
2016,08,20,00,35,4.80
2016,08,20,00,36,3.90
2016,08,20,00,37,3.40
2016,08,20,00,38,5.20
2016,08,20,00,39,3.40
2016,08,20,00,40,3.50
2016,08,20,00,41,6.10
2016,08,20,00,42,4.30
2016,08,20,00,43,4.30
2016,08,20,00,44,4.30
2016,08,20,00,45,3.10
2016,08,20,00,46,2.10
2016,08,20,00,47,7.60
2016,08,20,00,48,4.90
2016,08,20,00,49,6.40
2016,08,20,00,50,4.60
2016,08,20,00,51,5.20
2016,08,20,00,52,6.00
2016,08,20,00,53,11.50
2016,08,20,00,54,8.50
2016,08,20,00,55,5.80
2016,08,20,00,56,5.40
2016,08,20,00,57,7.00
2016,08,20,00,58,5.90
2016,08,20,00,59,6.60
2016,08,20,01,00,7.20
2016,08,20,01,01,9.30
2016,08,20,01,02,8.00
2016,08,20,01,03,4.20
2016,08,20,01,04,4.20
2016,08,20,01,05,4.30
2016,08,20,01,06,5.70
2016,08,20,01,07,4.20
2016,08,20,01,08,4.10
2016,08,20,01,09,6.00
2016,08,20,01,10,3.90
2016,08,20,01,11,4.30
2016,08,20,01,12,6.10
2016,08,20,01,13,5.80
2016,08,20,01,14,11.50
2016,08,20,01,15,10.40
2016,08,20,01,16,16.60
2016,08,20,01,17,12.60
2016,08,20,01,18,7.70
2016,08,20,01,19,10.60
2016,08,20,01,20,13.80
2016,08,20,01,21,12.80
2016,08,20,01,22,14.20
2016,08,20,01,23,13.10
2016,08,20,01,24,15.70
2016,08,20,01,25,12.60
2016,08,20,01,26,15.70
2016,08,20,01,27,15.30
2016,08,20,01,28,13.40
2016,08,20,01,29,13.40
2016,08,20,01,30,13.80
2016,08,20,01,31,12.60
2016,08,20,01,32,12.90
2016,08,20,01,33,12.30
2016,08,20,01,34,13.30
2016,08,20,01,35,15.70
2016,08,20,01,36,15.30
2016,08,20,01,37,12.20
2016,08,20,01,38,14.20
2016,08,20,01,39,13.90
2016,08,20,01,40,15.10
2016,08,20,01,41,16.10
2016,08,20,01,42,14.30
2016,08,20,01,43,15.60
2016,08,20,01,44,16.20
2016,08,20,01,45,16.70
2016,08,20,01,46,13.90
2016,08,20,01,47,11.20
2016,08,20,01,48,8.50
2016,08,20,01,49,7.90
2016,08,20,01,50,11.30
2016,08,20,01,51,12.60
2016,08,20,01,52,10.50
2016,08,20,01,53,15.60
2016,08,20,01,54,14.50
2016,08,20,01,55,12.80
2016,08,20,01,56,13.70
2016,08,20,01,57,10.80
2016,08,20,01,58,12.30
2016,08,20,01,59,9.40
2016,08,20,02,00,14.40
2016,08,20,02,01,13.30
2016,08,20,02,02,13.70
2016,08,20,02,03,11.20
2016,08,20,02,04,10.00
2016,08,20,02,05,9.40
2016,08,20,02,06,10.40
2016,08,20,02,07,11.60
2016,08,20,02,08,11.20
2016,08,20,02,09,9.70
2016,08,20,02,10,13.40
2016,08,20,02,11,10.10
2016,08,20,02,12,9.50
2016,08,20,02,13,10.00
2016,08,20,02,14,12.90
2016,08,20,02,15,13.40
2016,08,20,02,16,12.20
2016,08,20,02,17,12.50
2016,08,20,02,18,6.60
2016,08,20,02,19,10.30
2016,08,20,02,20,10.60
2016,08,20,02,21,12.10
2016,08,20,02,22,6.90
2016,08,20,02,23,9.50
2016,08,20,02,24,12.10
2016,08,20,02,25,11.70
2016,08,20,02,26,10.70
2016,08,20,02,27,11.60
2016,08,20,02,28,11.10
2016,08,20,02,29,9.60
2016,08,20,02,30,8.20
2016,08,20,02,31,6.70
2016,08,20,02,32,5.80
2016,08,20,02,33,9.30
2016,08,20,02,34,11.20
2016,08,20,02,35,12.10
2016,08,20,02,36,6.50
2016,08,20,02,37,5.40
2016,08,20,02,38,12.40
2016,08,20,02,39,9.70
2016,08,20,02,40,7.80
2016,08,20,02,41,6.60
2016,08,20,02,42,8.40
2016,08,20,02,43,7.30
2016,08,20,02,44,10.10
2016,08,20,02,45,7.40
2016,08,20,02,46,9.10
2016,08,20,02,47,11.00
2016,08,20,02,48,8.60
2016,08,20,02,49,5.10
2016,08,20,02,50,4.50
2016,08,20,02,51,5.20
2016,08,20,02,52,6.80
2016,08,20,02,53,4.70
2016,08,20,02,54,4.20
2016,08,20,02,55,3.90
2016,08,20,02,56,4.00
2016,08,20,02,57,4.10
2016,08,20,02,58,6.20
2016,08,20,02,59,4.40
2016,08,20,03,00,4.10
2016,08,20,03,01,3.50
2016,08,20,03,02,2.20
2016,08,20,03,03,3.40
2016,08,20,03,04,4.90
2016,08,20,03,05,2.60
2016,08,20,03,06,2.60
2016,08,20,03,07,2.60
2016,08,20,03,08,5.60
2016,08,20,03,09,6.10
2016,08,20,03,10,8.00
2016,08,20,03,11,5.50
2016,08,20,03,12,4.30
2016,08,20,03,13,3.30
2016,08,20,03,14,3.30
2016,08,20,03,15,3.50
2016,08,20,03,16,3.60
2016,08,20,03,17,3.50
2016,08,20,03,18,2.80
2016,08,20,03,19,5.10
2016,08,20,03,20,7.30
2016,08,20,03,21,5.20
2016,08,20,03,22,2.70
2016,08,20,03,23,4.10
2016,08,20,03,24,4.10
2016,08,20,03,25,4.50
2016,08,20,03,26,5.80
2016,08,20,03,27,2.60
2016,08,20,03,28,4.30
2016,08,20,03,29,6.10
2016,08,20,03,30,5.50
2016,08,20,03,31,5.90
2016,08,20,03,32,5.50
2016,08,20,03,33,3.30
2016,08,20,03,34,6.40
2016,08,20,03,35,8.40
2016,08,20,03,36,10.60
2016,08,20,03,37,4.40
2016,08,20,03,38,3.90
2016,08,20,03,39,2.70
2016,08,20,03,40,5.00
2016,08,20,03,41,5.50
2016,08,20,03,42,4.90
2016,08,20,03,43,6.30
2016,08,20,03,44,7.40
2016,08,20,03,45,7.60
2016,08,20,03,46,5.40
2016,08,20,03,47,4.70
2016,08,20,03,48,5.40
2016,08,20,03,49,6.20
2016,08,20,03,50,3.90
2016,08,20,03,51,6.70
2016,08,20,03,52,3.90
2016,08,20,03,53,4.90
2016,08,20,03,54,5.30
2016,08,20,03,55,4.60
2016,08,20,03,56,5.80
2016,08,20,03,57,6.60
2016,08,20,03,58,5.40
2016,08,20,03,59,4.00
2016,08,20,04,00,7.30
2016,08,20,04,01,7.50
2016,08,20,04,02,5.50
2016,08,20,04,03,4.00
2016,08,20,04,04,4.10
2016,08,20,04,05,2.70
2016,08,20,04,06,2.10
2016,08,20,04,07,4.40
2016,08,20,04,08,4.90
2016,08,20,04,09,5.20
2016,08,20,04,10,3.70
2016,08,20,04,11,7.40
2016,08,20,04,12,3.90
2016,08,20,04,13,7.00
2016,08,20,04,14,4.80
2016,08,20,04,15,4.80
2016,08,20,04,16,5.70
2016,08,20,04,17,4.20
2016,08,20,04,18,6.90
2016,08,20,04,19,4.50
2016,08,20,04,20,4.60
2016,08,20,04,21,6.60
2016,08,20,04,22,7.90
2016,08,20,04,23,7.70
2016,08,20,04,24,8.50
2016,08,20,04,25,10.20
2016,08,20,04,26,10.70
2016,08,20,04,27,7.40
2016,08,20,04,28,8.40
2016,08,20,04,29,9.90
2016,08,20,04,30,7.60
2016,08,20,04,31,6.30
2016,08,20,04,32,6.00
2016,08,20,04,33,7.20
2016,08,20,04,34,7.60
2016,08,20,04,35,11.10
2016,08,20,04,36,11.10
2016,08,20,04,37,10.10
2016,08,20,04,38,8.00
2016,08,20,04,39,9.00
2016,08,20,04,40,7.00
2016,08,20,04,41,5.50
2016,08,20,04,42,6.40
2016,08,20,04,43,7.20
2016,08,20,04,44,6.00
2016,08,20,04,45,6.40
2016,08,20,04,46,4.00
2016,08,20,04,47,5.50
2016,08,20,04,48,5.70
2016,08,20,04,49,6.40
2016,08,20,04,50,7.00
2016,08,20,04,51,8.30
2016,08,20,04,52,6.30
2016,08,20,04,53,6.90
2016,08,20,04,54,5.50
2016,08,20,04,55,6.00
2016,08,20,04,56,6.30
2016,08,20,04,57,3.20
2016,08,20,04,58,6.60
2016,08,20,04,59,4.40
2016,08,20,05,00,4.60
2016,08,20,05,01,5.30
2016,08,20,05,02,8.30
2016,08,20,05,03,9.90
2016,08,20,05,04,8.30
2016,08,20,05,05,5.70
2016,08,20,05,06,4.30
2016,08,20,05,07,6.10
2016,08,20,05,08,9.70
2016,08,20,05,09,10.40
2016,08,20,05,10,6.70
2016,08,20,05,11,3.80
2016,08,20,05,12,2.60
2016,08,20,05,13,3.90
2016,08,20,05,14,2.10
2016,08,20,05,15,2.40
2016,08,20,05,16,12.40
2016,08,20,05,17,6.90
2016,08,20,05,18,3.70
2016,08,20,05,19,2.90
2016,08,20,05,20,2.30
2016,08,20,05,21,3.90
2016,08,20,05,22,3.90
2016,08,20,05,23,2.60
2016,08,20,05,24,1.30
2016,08,20,05,25,1.00
2016,08,20,05,26,3.50
2016,08,20,05,27,5.00
2016,08,20,05,28,5.70
2016,08,20,05,29,9.10
2016,08,20,05,30,5.70
2016,08,20,05,31,4.50
2016,08,20,05,32,7.40
2016,08,20,05,33,6.60
2016,08,20,05,34,7.60
2016,08,20,05,35,6.90
2016,08,20,05,36,7.60
2016,08,20,05,37,7.60
2016,08,20,05,38,5.40
2016,08,20,05,39,6.80
2016,08,20,05,40,7.70
2016,08,20,05,41,4.10
2016,08,20,05,42,4.50
2016,08,20,05,43,9.30
2016,08,20,05,44,5.50
2016,08,20,05,45,6.00
2016,08,20,05,46,4.30
2016,08,20,05,47,8.40
2016,08,20,05,48,5.20
2016,08,20,05,49,7.20
2016,08,20,05,50,13.50
2016,08,20,05,51,9.50
2016,08,20,05,52,6.00
2016,08,20,05,53,4.90
2016,08,20,05,54,6.40
2016,08,20,05,55,4.10
2016,08,20,05,56,5.90
2016,08,20,05,57,5.00
2016,08,20,05,58,5.50
2016,08,20,05,59,7.70
2016,08,20,06,00,4.60
2016,08,20,06,01,4.80
2016,08,20,06,02,6.10
2016,08,20,06,03,4.40
2016,08,20,06,04,3.90
2016,08,20,06,05,2.90
2016,08,20,06,06,2.50
2016,08,20,06,07,3.90
2016,08,20,06,08,7.80
2016,08,20,06,09,6.30
2016,08,20,06,10,8.60
2016,08,20,06,11,4.80
2016,08,20,06,12,5.90
2016,08,20,06,13,3.70
2016,08,20,06,14,6.30
2016,08,20,06,15,9.00
2016,08,20,06,16,10.10
2016,08,20,06,17,7.80
2016,08,20,06,18,7.00
2016,08,20,06,19,6.20
2016,08,20,06,20,4.70
2016,08,20,06,21,4.20
2016,08,20,06,22,6.70
2016,08,20,06,23,8.80
2016,08,20,06,24,6.30
2016,08,20,06,25,5.60
2016,08,20,06,26,6.40
2016,08,20,06,27,8.30
2016,08,20,06,28,6.40
2016,08,20,06,29,7.30
2016,08,20,06,30,4.30
2016,08,20,06,31,7.10
2016,08,20,06,32,6.70
2016,08,20,06,33,6.10
2016,08,20,06,34,7.50
2016,08,20,06,35,5.60
2016,08,20,06,36,5.20
2016,08,20,06,37,5.90
2016,08,20,06,38,3.90
2016,08,20,06,39,6.80
2016,08,20,06,40,8.30
2016,08,20,06,41,5.00
2016,08,20,06,42,8.90
2016,08,20,06,43,4.90
2016,08,20,06,44,3.90
2016,08,20,06,45,7.80
2016,08,20,06,46,5.90
2016,08,20,06,47,5.20
2016,08,20,06,48,4.30
2016,08,20,06,49,5.10
2016,08,20,06,50,3.60
2016,08,20,06,51,3.60
2016,08,20,06,52,2.90
2016,08,20,06,53,1.60
2016,08,20,06,54,3.80
2016,08,20,06,55,4.60
2016,08,20,06,56,4.60
2016,08,20,06,57,3.00
2016,08,20,06,58,3.30
2016,08,20,06,59,6.00
2016,08,20,07,00,5.20
2016,08,20,07,01,3.60
2016,08,20,07,02,2.90
2016,08,20,07,03,4.60
2016,08,20,07,04,4.80
2016,08,20,07,05,6.20
2016,08,20,07,06,6.20
2016,08,20,07,07,4.60
2016,08,20,07,08,4.30
2016,08,20,07,09,5.70
2016,08,20,07,10,4.00
2016,08,20,07,11,3.80
2016,08,20,07,12,4.60
2016,08,20,07,13,4.30
2016,08,20,07,14,3.40
2016,08,20,07,15,2.70
2016,08,20,07,16,5.10
2016,08,20,07,17,2.90
2016,08,20,07,18,4.60
2016,08,20,07,19,3.90
2016,08,20,07,20,4.80
2016,08,20,07,21,4.60
2016,08,20,07,22,4.30
2016,08,20,07,23,6.40
2016,08,20,07,24,6.60
2016,08,20,07,25,7.30
2016,08,20,07,26,7.30
2016,08,20,07,27,5.10
2016,08,20,07,28,4.30
2016,08,20,07,29,5.10
2016,08,20,07,30,5.10
2016,08,20,07,31,4.00
2016,08,20,07,32,2.40
2016,08,20,07,33,2.30
2016,08,20,07,34,3.40
2016,08,20,07,35,5.10
2016,08,20,07,36,5.80
2016,08,20,07,37,6.70
2016,08,20,07,38,5.00
2016,08,20,07,39,3.20
2016,08,20,07,40,2.70
2016,08,20,07,41,2.30
2016,08,20,07,42,2.90
2016,08,20,07,43,3.20
2016,08,20,07,44,2.90
2016,08,20,07,45,2.60
2016,08,20,07,46,5.10
2016,08,20,07,47,4.60
2016,08,20,07,48,4.00
2016,08,20,07,49,3.50
2016,08,20,07,50,3.80
2016,08,20,07,51,2.90
2016,08,20,07,52,2.20
2016,08,20,07,53,3.60
2016,08,20,07,54,3.20
2016,08,20,07,55,3.70
2016,08,20,07,56,3.00
2016,08,20,07,57,5.00
2016,08,20,07,58,3.60
2016,08,20,07,59,2.30
2016,08,20,08,00,2.10
2016,08,20,08,01,4.20
2016,08,20,08,02,3.90
2016,08,20,08,03,4.40
2016,08,20,08,04,4.20
2016,08,20,08,05,1.40
2016,08,20,08,06,2.60
2016,08,20,08,07,5.20
2016,08,20,08,08,6.40
2016,08,20,08,09,3.80
2016,08,20,08,10,4.00
2016,08,20,08,11,4.30
2016,08,20,08,12,6.70
2016,08,20,08,13,4.80
2016,08,20,08,14,7.70
2016,08,20,08,15,2.80
2016,08,20,08,16,1.80
2016,08,20,08,17,1.60
2016,08,20,08,18,1.40
2016,08,20,08,19,3.50
2016,08,20,08,20,3.30
2016,08,20,08,21,2.00
2016,08,20,08,22,2.20
2016,08,20,08,23,4.20
2016,08,20,08,24,8.20
2016,08,20,08,25,7.10
2016,08,20,08,26,4.80
2016,08,20,08,27,5.20
2016,08,20,08,28,4.00
2016,08,20,08,29,2.10
2016,08,20,08,30,3.40
2016,08,20,08,31,3.50
2016,08,20,08,32,2.40
2016,08,20,08,33,9.10
2016,08,20,08,34,4.00
2016,08,20,08,35,4.40
2016,08,20,08,36,5.20
2016,08,20,08,37,8.10
2016,08,20,08,38,9.10
2016,08,20,08,39,2.40
2016,08,20,08,40,2.10
2016,08,20,08,41,4.70
2016,08,20,08,42,4.00
2016,08,20,08,43,3.30
2016,08,20,08,44,0.70
2016,08,20,08,45,0.90
2016,08,20,08,46,2.60
2016,08,20,08,47,2.80
2016,08,20,08,48,2.10
2016,08,20,08,49,2.60
2016,08,20,08,50,1.90
2016,08,20,08,51,6.60
2016,08,20,08,52,3.90
2016,08,20,08,53,5.30
2016,08,20,08,54,5.50
2016,08,20,08,55,5.40
2016,08,20,08,56,4.00
2016,08,20,08,57,4.80
2016,08,20,08,58,4.30
2016,08,20,08,59,5.30
2016,08,20,09,00,6.60
2016,08,20,09,01,4.20
2016,08,20,09,02,1.50
2016,08,20,09,03,3.70
2016,08,20,09,04,4.00
2016,08,20,09,05,5.90
2016,08,20,09,06,7.20
2016,08,20,09,07,9.00
2016,08,20,09,08,8.40
2016,08,20,09,09,6.00
2016,08,20,09,10,10.10
2016,08,20,09,11,7.10
2016,08,20,09,12,6.40
2016,08,20,09,13,4.90
2016,08,20,09,14,3.10
2016,08,20,09,15,5.00
2016,08,20,09,16,3.20
2016,08,20,09,17,6.70
2016,08,20,09,18,7.80
2016,08,20,09,19,6.60
2016,08,20,09,20,2.90
2016,08,20,09,21,3.30
2016,08,20,09,22,4.10
2016,08,20,09,23,7.70
2016,08,20,09,24,6.60
2016,08,20,09,25,7.80
2016,08,20,09,26,9.10
2016,08,20,09,27,3.70
2016,08,20,09,28,4.80
2016,08,20,09,29,8.90
2016,08,20,09,30,7.80
2016,08,20,09,31,3.30
2016,08,20,09,32,3.90
2016,08,20,09,33,5.30
2016,08,20,09,34,7.90
2016,08,20,09,35,7.50
2016,08,20,09,36,4.50
2016,08,20,09,37,4.20
2016,08,20,09,38,4.30
2016,08,20,09,39,4.70
2016,08,20,09,40,5.10
2016,08,20,09,41,3.00
2016,08,20,09,42,3.70
2016,08,20,09,43,6.70
2016,08,20,09,44,8.40
2016,08,20,09,45,8.50
2016,08,20,09,46,8.10
2016,08,20,09,47,12.60
2016,08,20,09,48,6.40
2016,08,20,09,49,5.60
2016,08,20,09,50,3.50
2016,08,20,09,51,4.50
2016,08,20,09,52,4.40
2016,08,20,09,53,11.10
2016,08,20,09,54,7.00
2016,08,20,09,55,2.80
2016,08,20,09,56,4.70
2016,08,20,09,57,6.70
2016,08,20,09,58,6.40
2016,08,20,09,59,6.90
2016,08,20,10,00,4.70
2016,08,20,10,01,3.40
2016,08,20,10,02,3.50
2016,08,20,10,03,4.90
2016,08,20,10,04,6.10
2016,08,20,10,05,10.90
2016,08,20,10,06,7.20
2016,08,20,10,07,12.00
2016,08,20,10,08,7.20
2016,08,20,10,09,5.50
2016,08,20,10,10,6.30
2016,08,20,10,11,7.40
2016,08,20,10,12,6.50
2016,08,20,10,13,9.30
2016,08,20,10,14,7.60
2016,08,20,10,15,11.00
2016,08,20,10,16,7.10
2016,08,20,10,17,8.70
2016,08,20,10,18,9.80
2016,08,20,10,19,12.00
2016,08,20,10,20,8.20
2016,08,20,10,21,6.30
2016,08,20,10,22,4.60
2016,08,20,10,23,7.20
2016,08,20,10,24,8.80
2016,08,20,10,25,7.60
2016,08,20,10,26,7.70
2016,08,20,10,27,7.90
2016,08,20,10,28,10.70
2016,08,20,10,29,6.10
2016,08,20,10,30,6.70
2016,08,20,10,31,10.50
2016,08,20,10,32,13.20
2016,08,20,10,33,9.20
2016,08,20,10,34,7.50
2016,08,20,10,35,10.70
2016,08,20,10,36,10.50
2016,08,20,10,37,6.60
2016,08,20,10,38,7.60
2016,08,20,10,39,10.00
2016,08,20,10,40,6.30
2016,08,20,10,41,6.30
2016,08,20,10,42,11.50
2016,08,20,10,43,9.90
2016,08,20,10,44,5.40
2016,08,20,10,45,4.70
2016,08,20,10,46,6.00
2016,08,20,10,47,5.50
2016,08,20,10,48,6.40
2016,08,20,10,49,8.30
2016,08,20,10,50,2.60
2016,08,20,10,51,2.20
2016,08,20,10,52,8.90
2016,08,20,10,53,7.00
2016,08,20,10,54,9.80
2016,08,20,10,55,6.50
2016,08,20,10,56,4.60
2016,08,20,10,57,4.20
2016,08,20,10,58,6.00
2016,08,20,10,59,5.00
2016,08,20,11,00,9.60
2016,08,20,11,01,5.20
2016,08,20,11,02,7.30
2016,08,20,11,03,5.70
2016,08,20,11,04,7.00
2016,08,20,11,05,9.10
2016,08,20,11,06,9.40
2016,08,20,11,07,9.70
2016,08,20,11,08,8.10
2016,08,20,11,09,6.60
2016,08,20,11,10,6.70
2016,08,20,11,11,7.80
2016,08,20,11,12,5.80
2016,08,20,11,13,7.10
2016,08,20,11,14,6.40
2016,08,20,11,15,6.60
2016,08,20,11,16,6.90
2016,08,20,11,17,10.30
2016,08,20,11,18,6.30
2016,08,20,11,19,7.00
2016,08,20,11,20,5.10
2016,08,20,11,21,9.60
2016,08,20,11,22,13.40
2016,08,20,11,23,7.50
2016,08,20,11,24,11.30
2016,08,20,11,25,5.10
2016,08,20,11,26,9.80
2016,08,20,11,27,5.90
2016,08,20,11,28,5.10
2016,08,20,11,29,5.10
2016,08,20,11,30,12.50
2016,08,20,11,31,6.30
2016,08,20,11,32,12.70
2016,08,20,11,33,8.50
2016,08,20,11,34,6.20
2016,08,20,11,35,8.80
2016,08,20,11,36,14.10
2016,08,20,11,37,7.70
2016,08,20,11,38,11.30
2016,08,20,11,39,7.30
2016,08,20,11,40,4.50
2016,08,20,11,41,9.00
2016,08,20,11,42,11.30
2016,08,20,11,43,6.30
2016,08,20,11,44,11.80
2016,08,20,11,45,10.40
2016,08,20,11,46,9.40
2016,08,20,11,47,8.70
2016,08,20,11,48,15.90
2016,08,20,11,49,10.80
2016,08,20,11,50,11.00
2016,08,20,11,51,9.80
2016,08,20,11,52,6.20
2016,08,20,11,53,4.40
2016,08,20,11,54,3.90
2016,08,20,11,55,6.70
2016,08,20,11,56,8.40
2016,08,20,11,57,9.80
2016,08,20,11,58,11.70
2016,08,20,11,59,6.30
2016,08,20,12,00,7.60
2016,08,20,12,01,10.80
2016,08,20,12,02,8.70
2016,08,20,12,03,12.70
2016,08,20,12,04,11.60
2016,08,20,12,05,10.60
2016,08,20,12,06,12.60
2016,08,20,12,07,11.00
2016,08,20,12,08,6.50
2016,08,20,12,09,11.40
2016,08,20,12,10,7.00
2016,08,20,12,11,6.90
2016,08,20,12,12,8.20
2016,08,20,12,13,5.70
2016,08,20,12,14,7.60
2016,08,20,12,15,7.90
2016,08,20,12,16,10.00
2016,08,20,12,17,10.90
2016,08,20,12,18,11.00
2016,08,20,12,19,8.00
2016,08,20,12,20,8.70
2016,08,20,12,21,6.40
2016,08,20,12,22,5.80
2016,08,20,12,23,6.70
2016,08,20,12,24,6.30
2016,08,20,12,25,5.80
2016,08,20,12,26,6.70
2016,08,20,12,27,12.00
2016,08,20,12,28,7.10
2016,08,20,12,29,9.50
2016,08,20,12,30,7.10
2016,08,20,12,31,11.10
2016,08,20,12,32,7.80
2016,08,20,12,33,6.40
2016,08,20,12,34,7.30
2016,08,20,12,35,8.20
2016,08,20,12,36,8.10
2016,08,20,12,37,5.00
2016,08,20,12,38,5.40
2016,08,20,12,39,9.30
2016,08,20,12,40,8.40
2016,08,20,12,41,6.60
2016,08,20,12,42,6.60
2016,08,20,12,43,12.10
2016,08,20,12,44,13.80
2016,08,20,12,45,8.80
2016,08,20,12,46,6.60
2016,08,20,12,47,6.20
2016,08,20,12,48,10.40
2016,08,20,12,49,7.90
2016,08,20,12,50,9.60
2016,08,20,12,51,12.50
2016,08,20,12,52,11.60
2016,08,20,12,53,9.80
2016,08,20,12,54,10.60
2016,08,20,12,55,8.40
2016,08,20,12,56,9.70
2016,08,20,12,57,7.10
2016,08,20,12,58,9.60
2016,08,20,12,59,8.20
2016,08,20,13,00,7.70
2016,08,20,13,01,7.50
2016,08,20,13,02,4.50
2016,08,20,13,03,5.80
2016,08,20,13,04,7.20
2016,08,20,13,05,6.90
2016,08,20,13,06,6.70
2016,08,20,13,07,6.30
2016,08,20,13,08,9.20
2016,08,20,13,09,7.30
2016,08,20,13,10,5.30
2016,08,20,13,11,11.00
2016,08,20,13,12,12.90
2016,08,20,13,13,11.30
2016,08,20,13,14,10.10
2016,08,20,13,15,8.90
2016,08,20,13,16,10.60
2016,08,20,13,17,9.50
2016,08,20,13,18,7.40
2016,08,20,13,19,5.20
2016,08,20,13,20,4.80
2016,08,20,13,21,9.50
2016,08,20,13,22,5.50
2016,08,20,13,23,5.00
2016,08,20,13,24,6.70
2016,08,20,13,25,3.70
2016,08,20,13,26,9.70
2016,08,20,13,27,15.30
2016,08,20,13,28,5.30
2016,08,20,13,29,2.70
2016,08,20,13,30,7.80
2016,08,20,13,31,7.20
2016,08,20,13,32,6.00
2016,08,20,13,33,11.70
2016,08,20,13,34,13.70
2016,08,20,13,35,10.30
2016,08,20,13,36,11.70
2016,08,20,13,37,9.40
2016,08,20,13,38,5.90
2016,08,20,13,39,4.90
2016,08,20,13,40,6.70
2016,08,20,13,41,6.30
2016,08,20,13,42,6.70
2016,08,20,13,43,6.20
2016,08,20,13,44,4.10
2016,08,20,13,45,6.80
2016,08,20,13,46,8.60
2016,08,20,13,47,6.60
2016,08,20,13,48,8.90
2016,08,20,13,49,9.20
2016,08,20,13,50,12.20
2016,08,20,13,51,6.20
2016,08,20,13,52,8.60
2016,08,20,13,53,10.40
2016,08,20,13,54,12.10
2016,08,20,13,55,10.90
2016,08,20,13,56,12.90
2016,08,20,13,57,8.90
2016,08,20,13,58,12.60
2016,08,20,13,59,16.00
2016,08,20,14,00,9.20
2016,08,20,14,01,8.80
2016,08,20,14,02,8.50
2016,08,20,14,03,7.00
2016,08,20,14,04,10.00
2016,08,20,14,05,8.40
2016,08,20,14,06,4.90
2016,08,20,14,07,1.50
2016,08,20,14,08,3.00
2016,08,20,14,09,10.10
2016,08,20,14,10,10.70
2016,08,20,14,11,9.30
2016,08,20,14,12,10.90
2016,08,20,14,13,7.00
2016,08,20,14,14,6.10
2016,08,20,14,15,7.60
2016,08,20,14,16,8.90
2016,08,20,14,17,11.80
2016,08,20,14,18,9.80
2016,08,20,14,19,6.40
2016,08,20,14,20,10.80
2016,08,20,14,21,9.80
2016,08,20,14,22,9.50
2016,08,20,14,23,8.80
2016,08,20,14,24,6.40
2016,08,20,14,25,4.30
2016,08,20,14,26,8.30
2016,08,20,14,27,8.90
2016,08,20,14,28,10.10
2016,08,20,14,29,14.70
2016,08,20,14,30,9.10
2016,08,20,14,31,8.20
2016,08,20,14,32,4.90
2016,08,20,14,33,11.20
2016,08,20,14,34,10.30
2016,08,20,14,35,5.80
2016,08,20,14,36,3.50
2016,08,20,14,37,9.20
2016,08,20,14,38,10.80
2016,08,20,14,39,9.40
2016,08,20,14,40,12.70
2016,08,20,14,41,6.60
2016,08,20,14,42,8.20
2016,08,20,14,43,6.30
2016,08,20,14,44,9.70
2016,08,20,14,45,7.40
2016,08,20,14,46,13.40
2016,08,20,14,47,8.90
2016,08,20,14,48,10.10
2016,08,20,14,49,10.70
2016,08,20,14,50,5.80
2016,08,20,14,51,9.80
2016,08,20,14,52,9.50
2016,08,20,14,53,11.50
2016,08,20,14,54,11.80
2016,08,20,14,55,8.70
2016,08,20,14,56,9.20
2016,08,20,14,57,11.80
2016,08,20,14,58,3.80
2016,08,20,14,59,10.90
2016,08,20,15,00,8.40
2016,08,20,15,01,8.70
2016,08,20,15,02,8.50
2016,08,20,15,03,9.30
2016,08,20,15,04,11.90
2016,08,20,15,05,5.50
2016,08,20,15,06,8.20
2016,08,20,15,07,10.30
2016,08,20,15,08,8.80
2016,08,20,15,09,9.40
2016,08,20,15,10,13.90
2016,08,20,15,11,15.10
2016,08,20,15,12,8.20
2016,08,20,15,13,6.80
2016,08,20,15,14,10.20
2016,08,20,15,15,6.30
2016,08,20,15,16,7.80
2016,08,20,15,17,4.10
2016,08,20,15,18,4.60
2016,08,20,15,19,9.20
2016,08,20,15,20,8.80
2016,08,20,15,21,5.60
2016,08,20,15,22,7.00
2016,08,20,15,23,8.10
2016,08,20,15,24,9.80
2016,08,20,15,25,12.70
2016,08,20,15,26,11.40
2016,08,20,15,27,4.60
2016,08,20,15,28,4.80
2016,08,20,15,29,11.40
2016,08,20,15,30,7.70
2016,08,20,15,31,8.90
2016,08,20,15,32,11.80
2016,08,20,15,33,11.10
2016,08,20,15,34,11.10
2016,08,20,15,35,7.20
2016,08,20,15,36,12.20
2016,08,20,15,37,7.00
2016,08,20,15,38,7.00
2016,08,20,15,39,6.00
2016,08,20,15,40,8.20
2016,08,20,15,41,6.70
2016,08,20,15,42,7.60
2016,08,20,15,43,4.90
2016,08,20,15,44,4.90
2016,08,20,15,45,13.40
2016,08,20,15,46,8.20
2016,08,20,15,47,8.50
2016,08,20,15,48,12.10
2016,08,20,15,49,8.00
2016,08,20,15,50,8.60
2016,08,20,15,51,10.80
2016,08,20,15,52,14.70
2016,08,20,15,53,11.60
2016,08,20,15,54,9.10
2016,08,20,15,55,4.60
2016,08,20,15,56,7.80
2016,08,20,15,57,8.10
2016,08,20,15,58,6.00
2016,08,20,15,59,11.60
2016,08,20,16,00,12.50
2016,08,20,16,01,8.60
2016,08,20,16,02,9.40
2016,08,20,16,03,15.10
2016,08,20,16,04,10.30
2016,08,20,16,05,12.10
2016,08,20,16,06,10.90
2016,08,20,16,07,8.00
2016,08,20,16,08,6.80
2016,08,20,16,09,10.30
2016,08,20,16,10,13.40
2016,08,20,16,11,11.30
2016,08,20,16,12,8.80
2016,08,20,16,13,8.00
2016,08,20,16,14,11.80
2016,08,20,16,15,10.80
2016,08,20,16,16,10.80
2016,08,20,16,17,12.10
2016,08,20,16,18,9.80
2016,08,20,16,19,6.50
2016,08,20,16,20,9.90
2016,08,20,16,21,10.60
2016,08,20,16,22,11.20
2016,08,20,16,23,7.50
2016,08,20,16,24,7.90
2016,08,20,16,25,10.40
2016,08,20,16,26,11.60
2016,08,20,16,27,12.90
2016,08,20,16,28,10.40
2016,08,20,16,29,6.70
2016,08,20,16,30,5.00
2016,08,20,16,31,10.80
2016,08,20,16,32,8.90
2016,08,20,16,33,9.40
2016,08,20,16,34,6.70
2016,08,20,16,35,8.00
2016,08,20,16,36,11.10
2016,08,20,16,37,7.00
2016,08,20,16,38,7.20
2016,08,20,16,39,12.10
2016,08,20,16,40,7.60
2016,08,20,16,41,11.10
2016,08,20,16,42,5.20
2016,08,20,16,43,8.50
2016,08,20,16,44,10.90
2016,08,20,16,45,6.20
2016,08,20,16,46,10.00
2016,08,20,16,47,4.70
2016,08,20,16,48,5.80
2016,08,20,16,49,3.90
2016,08,20,16,50,15.20
2016,08,20,16,51,8.20
2016,08,20,16,52,8.30
2016,08,20,16,53,10.40
2016,08,20,16,54,10.90
2016,08,20,16,55,6.80
2016,08,20,16,56,5.70
2016,08,20,16,57,9.90
2016,08,20,16,58,8.30
2016,08,20,16,59,11.50
2016,08,20,17,00,9.80
2016,08,20,17,01,8.30
2016,08,20,17,02,8.30
2016,08,20,17,03,7.90
2016,08,20,17,04,6.20
2016,08,20,17,05,9.20
2016,08,20,17,06,8.80
2016,08,20,17,07,5.30
2016,08,20,17,08,5.20
2016,08,20,17,09,6.10
2016,08,20,17,10,3.30
2016,08,20,17,11,10.50
2016,08,20,17,12,10.50
2016,08,20,17,13,8.40
2016,08,20,17,14,9.10
2016,08,20,17,15,12.30
2016,08,20,17,16,7.60
2016,08,20,17,17,8.20
2016,08,20,17,18,8.40
2016,08,20,17,19,8.80
2016,08,20,17,20,6.00
2016,08,20,17,21,4.10
2016,08,20,17,22,6.10
2016,08,20,17,23,6.60
2016,08,20,17,24,6.10
2016,08,20,17,25,6.60
2016,08,20,17,26,7.30
2016,08,20,17,27,10.40
2016,08,20,17,28,7.70
2016,08,20,17,29,9.00
2016,08,20,17,30,7.90
2016,08,20,17,31,6.60
2016,08,20,17,32,8.10
2016,08,20,17,33,11.70
2016,08,20,17,34,9.30
2016,08,20,17,35,10.90
2016,08,20,17,36,9.50
2016,08,20,17,37,8.30
2016,08,20,17,38,6.20
2016,08,20,17,39,10.30
2016,08,20,17,40,12.80
2016,08,20,17,41,10.10
2016,08,20,17,42,7.10
2016,08,20,17,43,8.30
2016,08,20,17,44,7.50
2016,08,20,17,45,7.20
2016,08,20,17,46,6.80
2016,08,20,17,47,6.10
2016,08,20,17,48,8.40
2016,08,20,17,49,7.90
2016,08,20,17,50,12.10
2016,08,20,17,51,10.30
2016,08,20,17,52,13.30
2016,08,20,17,53,11.70
2016,08,20,17,54,8.30
2016,08,20,17,55,12.50
2016,08,20,17,56,17.00